Regional Weather Roundup
Issued by NWS Huntsville, AL

Home | Current Version | Previous Version | Text Only | Print | Product List | Glossary On
Versions: 1 2 3 4 5 6 7 8 9 10 11 12 13 14 15 16 17 18 19 20 21 22 23 24 25 26 27
000
ASUS44 KHUN 290210
RWRHUN

WEATHER ROUNDUP FOR THE TENNESSEE VALLEY
NATIONAL WEATHER SERVICE HUNTSVILLE AL
900 PM CDT THU JUL 28 2016

ALZ001>004-290300-
NORTHWEST ALABAMA

CITY           SKY/WX    TMP DP  RH WIND       PRES   REMARKS
COURTLAND HCN    N/A     73 N/A N/A SW7         N/A
RUSSELLVILLE     N/A     72 N/A N/A MISG        N/A
SHOALS AIRPORT PTCLDY    75  72  90 CALM      29.98S
SHOALS TVA RES   N/A     73 N/A N/A MISG        N/A
$$

ALZ005>007-016-290300-
NORTH CENTRAL ALABAMA

CITY           SKY/WX    TMP DP  RH WIND       PRES   REMARKS
CULLMAN AG STN   N/A     75 N/A N/A SW3         N/A
DECATUR AP     CLOUDY    73  72  96 CALM      29.99R
HUNTSVILLE AP  CLOUDY    74  69  85 CALM      29.99R
HUN NWS/UAH      N/A     73  69  89 W1          N/A
MERIDIANVILLE  DRIZZLE   72  66  83 CALM      29.99S
VINEMONT AP    MOCLDY    74  73  95 W3        30.02R
$$

ALZ008>010-290300-
NORTHEAST ALABAMA

CITY           SKY/WX    TMP DP  RH WIND       PRES   REMARKS
ALBERTVILLE    MOCLDY    73  73 100 CALM      30.01R
FORT PAYNE     MOCLDY    73  70  88 SW3       30.00R
SCOTTSBORO AP  MOCLDY    75  75 100 S5        29.99S
$$

TNZ076-096-097-290300-
SOUTHEASTERN MIDDLE TENNESSEE

CITY           SKY/WX    TMP DP  RH WIND       PRES   REMARKS
TULLAHOMA      MOCLDY    72  72 100 SW5       30.01S
WINCHESTER     MOCLDY    72  72 100 CALM      30.00S
$$

...SURROUNDING SITES...

CITY           SKY/WX    TMP DP  RH WIND       PRES   REMARKS
ATLANTA        CLOUDY    81  71  71 W9        30.01R
ANNISTON       MOCLDY    76  71  85 CALM      30.02R
BIRMINGHAM     MOCLDY    78  74  87 N3        30.03R
CHATTANOOGA    CLOUDY    77  71  82 SW6       29.97F
DALTON         MOCLDY    75  72  88 CALM      29.99R
GADSDEN        MOCLDY    76  73  91 CALM        N/A
GOLDEN TRNGL   MOCLDY    82  70  65 CALM      29.98S
HALEYVILLE     FAIR      71  70  96 SW3       30.03R
JACKSON TN     PTCLDY    79  76  90 SW7       29.94S
MEMPHIS        CLOUDY    82  76  81 S8        29.94S
NASHVILLE      MOCLDY    79  73  82 S6        29.95R
OXFORD MS      FAIR      75  73  94 S3        29.99S
ROME           MOCLDY    77  71  82 SW3       29.98S
SAVANNAH       MOCLDY    79  75  89 SW8       29.96R
TUPELO         CLOUDY    78  72  81 S8        29.97S
TUSCALOOSA     PTCLDY    78  74  87 CALM      29.99R
$$

...GULF COAST WEATHER...

CITY           SKY/WX    TMP DP  RH WIND       PRES   REMARKS
GULFPORT       PTCLDY    80  73  79 NW5       30.02R
PASCAGOULA     PTCLDY    80  79  96 CALM      30.02R
MOBILE         PTCLDY    80  74  81 CALM      30.03R
GULF SHORES    PTCLDY    81  78  90 CALM      30.03R
PENSACOLA      PTCLDY    83  76  79 SW3       30.03R HX  91
DESTIN         PTCLDY    88  78  72 VRB3      30.02R HX 101
PANAMA CITY    PTCLDY    85  75  72 SW8       30.03R HX  92
APPALACHICOLA  CLEAR     83  77  82 CALM      30.02R HX  92
$$





USA.gov is the U.S. government's official web portal to all federal, state and local government web resources and services.